Overview Statistics Trail Chart Weather Telemetry Raw packets
 

This is the latest recevied weather packets stored in our database for station/object N9BLE. If no packets are shown the sender has not sent any weather packets the latest 10 day(s).

<< 62 63 64 65 66 67 68 >>
Time Temp. Humidity Pressure Rain* Wind** Luminosity Snow
1777614161 3.89° C 94% 1017.9 hPa 0 mm - 0 W/m² -
1777613855 3.89° C 94% 1018.2 hPa 0 mm - 0 W/m² -
1777613553 3.89° C 94% 1018.2 hPa 0 mm - 0 W/m² -
1777613249 3.89° C 93% 1018.2 hPa 0 mm - 0 W/m² -
1777612946 3.89° C 93% 1018.1 hPa 0 mm - 0 W/m² -
1777612642 3.89° C 93% 1018.1 hPa 0 mm - 0 W/m² -
1777612338 3.89° C 93% 1018.1 hPa 0 mm - 0 W/m² -
1777612033 3.89° C 93% 1018.2 hPa 0 mm - 0 W/m² -
1777611728 3.89° C 92% 1018.1 hPa 0 mm - 0 W/m² -
1777611425 3.89° C 92% 1018.2 hPa 0 mm - 0 W/m² -
1777611123 3.89° C 92% 1018 hPa 0 mm - 0 W/m² -
1777610823 3.89° C 92% 1018.1 hPa 0 mm - 0 W/m² -
1777610518 3.89° C 91% 1018.2 hPa 0 mm - 0 W/m² -
1777610213 3.33° C 91% 1018.3 hPa 0 mm - 0 W/m² -
1777609910 3.33° C 91% 1018.3 hPa 0 mm - 0 W/m² -
1777609606 3.33° C 92% 1018.4 hPa 0 mm - 0 W/m² -
1777609304 3.33° C 92% 1018.5 hPa 0 mm - 0 W/m² -
1777609001 3.33° C 93% 1018.6 hPa 0 mm - 0 W/m² -
1777608698 3.33° C 93% 1018.8 hPa 0 mm - 0 W/m² -
1777608395 3.33° C 92% 1018.8 hPa 1.27 mm - 0 W/m² -
1777608093 3.33° C 92% 1018.7 hPa 3.05 mm - 0 W/m² -
1777607789 3.33° C 92% 1019 hPa 3.56 mm - 0 W/m² -
1777607486 3.89° C 92% 1019 hPa 1.78 mm - 0 W/m² -
1777607182 3.89° C 92% 1018.9 hPa 1.27 mm - 0 W/m² -
1777606878 3.89° C 92% 1018.9 hPa 3.05 mm - 0 W/m² -

* Rain latest hour (hover to see other rain measurements)
** Current wind speed in m/s (hover to see current wind gust speed)